This is the latest recevied weather packets stored in our database for station/object KA1AL. If no packets are shown the sender has not sent any weather packets the latest 10 day(s).
| Time | Temp. | Humidity | Pressure | Rain* | Wind** | Luminosity | Snow |
|---|---|---|---|---|---|---|---|
| 1777813568 | 3.89° C | 99% | 1006 hPa | 1.78 mm | - | 79 W/m² | - |
| 1777813266 | 3.89° C | 99% | 1006.2 hPa | 1.78 mm | - | 75 W/m² | - |
| 1777812963 | 3.89° C | 99% | 1006 hPa | 0 mm | - | 79 W/m² | - |
| 1777812660 | 3.89° C | 99% | 1006 hPa | 1.27 mm | - | 75 W/m² | - |
| 1777812356 | 3.33° C | 99% | 1006.2 hPa | 1.27 mm | - | 64 W/m² | - |
| 1777812055 | 3.33° C | 99% | 1006.2 hPa | 1.78 mm | - | 40 W/m² | - |
| 1777811753 | 3.89° C | 99% | 1006 hPa | 3.05 mm | - | 41 W/m² | - |
| 1777811449 | 3.33° C | 99% | 1006.4 hPa | 1.27 mm | - | 36 W/m² | - |
| 1777811146 | 3.89° C | 99% | 1006.2 hPa | 1.27 mm | - | 44 W/m² | - |
| 1777810843 | 3.89° C | 99% | 1006.2 hPa | 1.78 mm | - | 42 W/m² | - |
| 1777810540 | 3.89° C | 99% | 1006.2 hPa | 1.78 mm | - | 42 W/m² | - |
| 1777810237 | 3.89° C | 99% | 1006.5 hPa | 1.78 mm | - | 53 W/m² | - |
| 1777809933 | 3.89° C | 99% | 1006.4 hPa | 1.78 mm | - | 52 W/m² | - |
| 1777809631 | 3.89° C | 99% | 1006.4 hPa | 1.27 mm | - | 48 W/m² | - |
| 1777809328 | 3.33° C | 99% | 1006.5 hPa | 1.27 mm | - | 42 W/m² | - |
| 1777809026 | 3.89° C | 99% | 1006.5 hPa | 0 mm | - | 36 W/m² | - |
| 1777808723 | 3.33° C | 99% | 1006.7 hPa | 1.78 mm | - | 46 W/m² | - |
| 1777808420 | 3.33° C | 99% | 1006.3 hPa | 1.78 mm | - | 42 W/m² | - |
| 1777808118 | 3.33° C | 99% | 1006.6 hPa | 1.78 mm | - | 35 W/m² | - |
| 1777807816 | 3.33° C | 99% | 1006.6 hPa | 0 mm | - | 36 W/m² | - |
| 1777807514 | 3.33° C | 99% | 1006.3 hPa | 0 mm | - | 34 W/m² | - |
| 1777807209 | 3.33° C | 99% | 1006.5 hPa | 0 mm | - | 34 W/m² | - |
| 1777806906 | 3.33° C | 99% | 1006.4 hPa | 0 mm | - | 35 W/m² | - |
| 1777806602 | 3.33° C | 99% | 1006.4 hPa | 0 mm | - | 37 W/m² | - |
| 1777806298 | 3.33° C | 99% | 1006.5 hPa | 0 mm | - | 28 W/m² | - |
* Rain latest hour (hover to see other rain measurements)
** Current wind speed in m/s (hover to see current wind gust speed)